TimeHST,TemperatureF,Dew PointF,Humidity,Sea Level PressureIn,VisibilityMPH,Wind Direction,Wind SpeedMPH,Gust SpeedMPH,PrecipitationIn,Events,Conditions,WindDirDegrees,DateUTC
12:53 AM,70.0,66.9,90,29.92,10.0,NNW,10.4,-,N/A,,Overcast,330,2013-05-06 10:53:00
1:53 AM,70.0,66.0,87,29.89,10.0,North,5.8,-,N/A,,Mostly Cloudy,10,2013-05-06 11:53:00
2:53 AM,70.0,66.0,87,29.88,10.0,NNW,8.1,-,N/A,,Overcast,330,2013-05-06 12:53:00
3:53 AM,71.1,64.9,81,29.88,10.0,NNW,6.9,-,N/A,,Mostly Cloudy,330,2013-05-06 13:53:00
4:53 AM,69.1,66.0,90,29.88,10.0,North,6.9,-,N/A,,Partly Cloudy,350,2013-05-06 14:53:00
5:53 AM,69.1,64.9,87,29.90,10.0,NNW,5.8,-,N/A,,Mostly Cloudy,330,2013-05-06 15:53:00
6:53 AM,70.0,64.9,84,29.92,10.0,North,4.6,-,N/A,,Overcast,360,2013-05-06 16:53:00
7:53 AM,73.9,64.0,71,29.94,10.0,North,6.9,-,N/A,,Mostly Cloudy,350,2013-05-06 17:53:00
8:53 AM,77.0,62.1,60,29.95,10.0,North,8.1,-,N/A,,Scattered Clouds,350,2013-05-06 18:53:00
9:53 AM,79.0,62.1,56,29.95,10.0,North,4.6,-,N/A,,Mostly Cloudy,360,2013-05-06 19:53:00
10:53 AM,80.1,59.0,48,29.94,10.0,NW,8.1,17.3,N/A,,Scattered Clouds,310,2013-05-06 20:53:00
11:53 AM,82.9,60.1,46,29.92,10.0,NW,8.1,19.6,N/A,,Scattered Clouds,320,2013-05-06 21:53:00
12:53 PM,82.0,60.1,47,29.91,10.0,WNW,6.9,-,N/A,,Scattered Clouds,300,2013-05-06 22:53:00
1:53 PM,82.0,64.0,54,29.89,10.0,SSW,12.7,-,N/A,,Scattered Clouds,200,2013-05-06 23:53:00
2:53 PM,80.1,63.0,56,29.88,10.0,South,10.4,-,N/A,,Scattered Clouds,180,2013-05-07 00:53:00
3:53 PM,79.0,63.0,58,29.88,10.0,South,11.5,-,N/A,,Clear,180,2013-05-07 01:53:00
4:53 PM,78.1,64.0,62,29.88,10.0,South,9.2,-,N/A,,Scattered Clouds,180,2013-05-07 02:53:00
5:53 PM,77.0,61.0,58,29.90,10.0,South,6.9,-,N/A,,Scattered Clouds,190,2013-05-07 03:53:00
6:53 PM,77.0,59.0,54,29.91,10.0,ESE,6.9,-,N/A,,Scattered Clouds,110,2013-05-07 04:53:00
7:53 PM,73.9,63.0,68,29.94,10.0,NNE,4.6,-,N/A,,Partly Cloudy,20,2013-05-07 05:53:00
8:53 PM,73.0,63.0,71,29.96,10.0,North,4.6,-,N/A,,Partly Cloudy,10,2013-05-07 06:53:00
9:53 PM,72.0,63.0,73,29.97,10.0,North,6.9,-,N/A,,Partly Cloudy,360,2013-05-07 07:53:00
10:53 PM,71.1,63.0,75,29.98,10.0,NNE,4.6,-,N/A,,Partly Cloudy,20,2013-05-07 08:53:00
11:53 PM,71.1,62.1,73,29.97,10.0,NNW,4.6,-,N/A,,Mostly Cloudy,340,2013-05-07 09:53:00